Location: Ostiglia
(45.0667°N, 11.1333°E)
Time: 06:01:56
(UTC+00:00)

Daily predictions for brighter satellites

Satellite Brightness Start Highest point End
(mag) Time Altitude Azimuth Time Altitude Azimuth Time Altitude Azimuth
Cosmos 1634 Rocket 4.0 16:26:16 10° N 16:32:31 69° E 16:38:46 10° SSE
CZ-2C R/B 4.1 16:30:01 10° ESE 16:34:25 27° ENE 16:39:00 10° N
H-2A R/B 2.4 16:32:12 10° SSE 16:36:12 88° ENE 16:40:23 10° NNW
Okean-O 4.2 16:33:56 10° E 16:36:27 15° ENE 16:38:59 10° NNE
H-2A R/B 3.4 16:34:28 10° E 16:37:32 17° ENE 16:40:40 10° NNE
Okean O Rocket 1.6 16:34:39 10° SSE 16:39:03 64° ENE 16:43:27 10° N
CZ-4B R/B 2.6 16:37:28 10° NE 16:40:14 23° E 16:42:55 10° SSE
YAOGAN 6 4.0 16:37:33 10° S 16:40:57 43° W 16:44:24 10° NNW
SMAP 3.1 16:36:23 10° SSE 16:41:02 89° ENE 16:45:44 10° NNW
Cosmos 1626 2.2 16:38:08 10° S 16:41:49 81° W 16:45:32 10° N
SeaSat 1 4.3 16:38:02 10° N 16:42:01 25° NW 16:46:00 10° WSW
Cosmos 773 Rocket 4.1 16:37:11 10° NNW 16:42:16 55° ENE 16:47:17 10° SE
CZ-4B R/B 3.3 16:37:32 10° SSE 16:43:03 83° ENE 16:48:43 10° NNW
SL-24 R/B 4.1 16:39:20 10° SSE 16:43:38 80° ENE 16:48:16 10° N
Aureole 2 Rocket 4.0 16:44:56 10° SE 16:46:30 13° E 16:48:02 10° ENE
AQUARIUS 4.2 16:43:29 10° SSE 16:47:59 89° W 16:52:31 10° NNW
Cosmos 2297 Rocket 4.5 16:46:28 10° WNW 16:49:40 15° NW 16:52:53 10° N
Cosmos 1603 4.0 16:45:42 10° NNW 16:51:24 77° WSW 16:57:07 10° SSE
Meteor 2-10 Rocket 4.1 16:46:54 10° N 16:52:04 38° ENE 16:56:59 10° SE
CZ-2D R/B 3.9 16:52:22 10° SE 16:55:51 33° ENE 16:59:21 10° N
Cosmos 1606 Rocket 3.5 16:52:58 10° N 16:57:21 70° E 17:01:44 10° SSE
YAOGAN 1 3.7 16:55:17 10° ESE 16:58:36 22° ENE 17:01:56 10° NNE
USA 234 4.2 16:53:06 10° ENE 16:58:41 31° N 17:04:18 10° NW
Cosmos 1892 Rocket 3.9 16:54:43 10° SSE 16:58:50 43° E 17:02:57 10° NNE
H-2A R/B 2.3 16:54:21 10° NNE 16:58:50 79° WNW 17:03:11 10° SSW
TELKOM 3 4.1 16:57:22 10° SSW 16:59:27 30° SE 17:01:04 15° E
FengYun 1-2 T 4.3 16:55:04 10° SSE 17:00:37 86° WSW 17:06:16 10° NNW
ATLAS 5 CENTAUR R/B 2.1 16:57:04 10° SW 17:00:59 53° NW 17:05:25 10° NNE
SL-14 R/B 3.9 17:00:31 10° SSW 17:04:19 59° W 17:08:12 10° N
Helios 1A Rocket 4.2 17:01:29 10° ESE 17:04:29 20° ENE 17:07:29 10° NNE
RESURS DK-1 4.0 17:02:35 10° WSW 17:06:19 31° NW 17:10:03 10° N
MOS 1 Rocket 3.6 17:04:14 10° NNE 17:08:14 36° E 17:12:11 10° SSE
Cosmos 2228 3.1 17:05:03 10° N 17:09:19 78° W 17:13:36 10° S
ATLAS 3B R/B 3.9 17:02:38 10° NW 17:09:19 49° WSW 17:16:14 10° S
BREEZE-M DEB (TANK) 4.3 17:08:29 10° W 17:10:51 22° SSW 17:13:39 10° SSE
Meteor 2-5 Rocket 4.2 17:07:42 10° SSW 17:13:14 64° WNW 17:18:44 10° N
SKYMED 2 3.6 17:09:55 10° NNE 17:14:13 57° E 17:18:29 10° S
CZ-4C R/B 3.8 17:10:26 10° W 17:14:56 27° NNW 17:20:12 10° NNE
Cosmos 1538 Rocket 3.9 17:10:51 10° NNW 17:15:59 61° ENE 17:21:05 10° SSE
Aureole 3 3.9 17:13:12 10° NNE 17:16:07 23° ENE 17:18:42 10° SE
SJ 16-02 2.1 17:12:18 10° SSE 17:16:09 30° E 17:18:57 16° NE
Nadezhda 4 Rocket 4.2 17:11:33 10° SSE 17:17:27 46° E 17:23:21 10° NNE
CZ-3B R/B 2.7 17:15:11 10° NNW 17:17:28 29° NE 17:20:09 17° E
Cosmos 1777 Rocket 4.0 17:14:09 10° SSW 17:19:24 82° ESE 17:24:43 10° NNE
YAOGAN 3 4.5 17:17:03 10° SSE 17:21:24 83° ENE 17:25:46 10° NNW
Cosmos 2263 Rocket 3.2 17:16:06 10° SW 17:21:33 46° WNW 17:27:01 10° NNE
Cosmos 1455 2.7 17:23:14 10° N 17:26:48 37° ENE 17:30:22 10° SE
Cosmos 2058 Rocket 3.0 17:24:18 10° N 17:28:48 73° E 17:33:18 10° SSE
Cosmos 1300 4.5 17:27:26 10° NNW 17:30:56 35° W 17:34:25 10° SSW
Cosmos 1703 4.3 17:28:53 10° SE 17:31:37 24° ESE 17:31:37 24° ESE
X-37B 1.8 17:29:29 10° SW 17:32:21 31° SSE 17:33:14 26° ESE
Meteor 2-13 Rocket 4.4 17:29:55 10° S 17:35:54 61° E 17:41:56 10° NNE
ARGOS 3.6 17:31:56 10° SE 17:36:51 38° ENE 17:41:47 10° N
Cosmos 44 4.4 17:36:14 10° SSE 17:40:02 24° ESE 17:40:18 24° ESE
Okean 1-7 Rocket 3.5 17:35:48 10° S 17:40:20 80° E 17:44:55 10° N
CREW DRAGON DEMO-1 DEB 3.7 17:39:21 10° NW 17:41:52 32° N 17:41:52 32° N
Lacrosse 5 1.9 17:37:16 10° NW 17:42:17 60° NE 17:45:00 26° ESE
NOSS 3-1 (C) 4.4 17:35:51 10° NNW 17:42:40 41° NE 17:47:10 23° E
Cosmos 1939 Rocket 4.2 17:40:06 10° S 17:44:03 44° W 17:47:59 10° NNW
ISS -3.6 17:41:06 10° SW 17:44:24 56° SE 17:45:00 47° ESE
ERS-2 1.9 17:42:03 16° NNE 17:44:51 78° ESE 17:48:29 10° S
CZ-2C R/B 3.5 17:45:49 28° ENE 17:46:39 29° E 17:51:28 10° SSE
CSL-04 Debris 4.3 17:41:46 10° SE 17:46:54 47° ENE 17:52:03 10° N
PSLV R/B 3.9 17:43:31 13° NNE 17:47:15 67° ESE 17:51:26 10° S
EXPRESS MD2 4.1 17:39:58 10° WNW 17:47:59 80° SSW 17:50:21 26° SE
COSMOS 2455 3.0 17:42:52 10° SW 17:48:54 77° WNW 17:54:02 15° NNE
Cosmos 1626 Rocket 3.6 17:47:18 10° S 17:51:34 55° E 17:54:01 24° NNE
Cosmos 1844 3.7 17:48:12 10° S 17:53:44 63° ESE 17:57:10 24° NE
Cosmos 2026 Rocket 4.2 17:48:55 10° SSE 17:54:34 42° E 18:00:19 10° NNE
IRS-1C Rocket 4.3 17:49:31 10° S 17:54:46 71° WSW 18:00:02 10° NNW
Cosmos 990 Rocket 4.4 17:50:42 10° S 17:55:31 39° ESE 17:56:18 37° E
Cosmos 1833 Rocket 4.1 17:51:23 10° N 17:54:41 20° NNE 17:54:41 20° NNE
CZ-4 R/B 1.4 17:52:09 10° SSE 17:56:17 84° W 18:00:21 10° NNW
Cosmos 2082 Rocket 4.1 17:54:12 10° N 17:55:55 13° NNE 17:55:55 13° NNE
NOAA 15 4.5 17:52:19 10° SSE 17:57:34 85° ENE 18:02:52 10° NNW
USA 229 DEB 4.4 17:52:53 10° NNW 17:59:34 38° NE 18:01:49 31° ENE
USA 229 4.4 17:53:00 10° NNW 17:59:39 38° NE 18:01:52 31° ENE
COSMO-SKYMED 1 3.7 17:58:08 10° N 18:02:17 44° WNW 18:06:24 10° SW
DMSP B5D1-3 4.4 18:01:30 17° NNE 18:05:31 68° ESE 18:10:35 10° S
USA 267 3.8 18:04:12 33° E 18:05:55 38° SE 18:11:54 10° SSW
CZ-4B R/B 3.9 18:09:41 10° NNW 18:12:19 21° WNW 18:14:54 10° WSW
Okean-O 3.0 18:08:01 10° S 18:12:24 65° WSW 18:16:50 10° NNW
CZ-2C R/B 4.2 18:08:56 10° S 18:13:59 47° W 18:19:20 10° NNW
NOSS 3-1 (A) 4.4 18:08:22 10° NNW 18:15:13 41° NE 18:16:57 37° ENE
Cosmos 1844 Rocket 2.8 18:10:07 10° SSW 18:15:47 74° WNW 18:19:24 23° NNE
H-2A R/B 2.1 18:11:24 10° S 18:16:21 73° WSW 18:21:27 10° NNW
Cosmos 923 Rocket 4.0 18:12:20 10° NNW 18:17:43 89° WSW 18:23:01 10° SSE
Meteor 1-21 Rocket 4.2 18:12:38 10° SSW 18:18:09 79° W 18:23:45 10° N
Aureole 2 Rocket 3.9 18:16:29 10° SW 18:19:10 29° WNW 18:19:29 28° NW
Cosmos 1689 Rocket 3.8 18:20:00 31° WSW 18:20:00 31° WSW 18:21:55 10° SW
Cosmos 2195 Rocket 4.4 18:13:48 10° S 18:20:06 77° E 18:26:28 10° N
Cosmos 158 Rocket 4.2 18:17:45 10° NNW 18:23:06 74° WSW 18:28:28 10° SSE
Meteor 2-8 Rocket 4.3 18:17:19 10° N 18:23:26 76° E 18:29:32 10° SSE
Cosmos 1898 Rocket 3.5 18:18:48 10° S 18:23:42 59° ESE 18:23:42 59° ESE
Meteor 2-15 4.4 18:18:04 10° N 18:24:06 54° ENE 18:24:42 52° E
Cosmos 2278 Rocket 4.4 18:20:13 10° SSE 18:20:26 11° SSE 18:20:26 11° SSE
Cosmos 1680 Rocket 3.3 18:19:50 10° NNW 18:25:07 82° ENE 18:26:36 48° SSE
Cosmos 1627 Rocket 4.3 18:23:49 10° S 18:29:58 81° E 18:36:15 10° N
Cosmos 2098 Rocket 4.2 18:24:18 10° S 18:31:15 68° E 18:38:39 10° NNE
Cosmos 1602 Rocket 3.6 18:27:18 10° SSW 18:31:34 76° W 18:31:34 76° W
Cosmos 1818 4.0 18:27:40 10° SW 18:33:00 58° NW 18:34:52 38° N
YAOGAN 1 3.9 18:30:25 10° SSW 18:34:27 39° W 18:38:32 10° NNW
Cosmos 1428 Rocket 4.4 18:28:42 10° S 18:34:59 82° E 18:41:20 10° N
CSL-04 Rocket 3.8 18:32:47 10° S 18:38:09 71° WSW 18:43:39 10° NNW
Helios 1A Rocket 4.2 18:35:26 10° S 18:39:21 41° W 18:43:17 10° NNW
USA 234 3.6 18:40:20 46° NE 18:40:48 47° NNE 18:47:02 10° NW
Cosmos 1092 Rocket 4.3 18:39:02 10° SSW 18:45:11 64° W 18:51:19 10° N
ATLAS 5 CENTAUR R/B 4.1 18:44:33 10° NW 18:46:48 14° NNW 18:47:37 13° N
Iridium 4 Rocket 3.9 18:41:34 10° N 18:47:14 65° W 18:52:25 10° S
SJ 16-02 3.2 18:50:55 10° WSW 18:54:43 28° WNW 18:55:59 24° NNW
Cosmos 2344 4.2 18:45:50 10° NW 18:55:10 74° NE 18:59:35 45° ESE
COSMOS 2406 4.5 19:11:44 10° NNW 19:14:49 33° NNW 19:14:49 33° NNW
Lacrosse 5 3.7 19:20:41 10° WNW 19:24:15 27° WSW 19:24:15 27° WSW
CZ-2C R/B 3.8 19:27:19 43° WNW 19:27:19 43° WNW 19:32:16 10° SW
NOSS 3-1 (C) 4.3 19:26:32 10° NW 19:34:05 66° WSW 19:34:39 65° SW
USA 267 4.2 19:51:34 42° WSW 19:51:34 42° WSW 19:55:43 10° WSW
USA 229 DEB 4.5 19:43:44 10° NW 19:49:18 53° WNW 19:49:18 53° WNW
USA 229 4.5 19:43:50 10° NW 19:49:21 52° WNW 19:49:21 52° WNW
